This is the latest recevied weather packets stored in our database for station/object PA3BWK. If no packets are shown the sender has not sent any weather packets the latest 10 day(s).
| Time | Temp. | Humidity | Pressure | Rain* | Wind** | Luminosity | Snow |
|---|---|---|---|---|---|---|---|
| 1787929038 | 16.67° C | 90% | 1008.6 hPa | 2.29 mm | - | 72 W/m² | - |
| 1787928978 | 16.67° C | 90% | 1008.6 hPa | 2.54 mm | - | 76 W/m² | - |
| 1787928910 | 16.67° C | 90% | 1008.6 hPa | 2.79 mm | - | 79 W/m² | - |
| 1787928848 | 16.67° C | 90% | 1008.6 hPa | 2.79 mm | - | 81 W/m² | - |
| 1787928786 | 16.67° C | 90% | 1008.6 hPa | 2.79 mm | - | 85 W/m² | - |
| 1787928725 | 16.67° C | 90% | 1008.6 hPa | 3.05 mm | - | 85 W/m² | - |
| 1787928664 | 16.67° C | 90% | 1008.6 hPa | 3.05 mm | - | 85 W/m² | - |
| 1787928605 | 16.67° C | 90% | 1008.6 hPa | 3.3 mm | - | 85 W/m² | - |
| 1787928544 | 16.67° C | 90% | 1008.6 hPa | 3.3 mm | - | 85 W/m² | - |
| 1787928483 | 16.67° C | 90% | 1008.6 hPa | 3.3 mm | - | 83 W/m² | - |
| 1787928424 | 16.67° C | 90% | 1008.6 hPa | 3.3 mm | - | 83 W/m² | - |
| 1787928363 | 16.67° C | 90% | 1008.6 hPa | 3.56 mm | - | 81 W/m² | - |
| 1787928304 | 16.67° C | 90% | 1008.6 hPa | 3.56 mm | - | 79 W/m² | - |
| 1787928245 | 16.67° C | 90% | 1008.6 hPa | 3.81 mm | - | 78 W/m² | - |
| 1787928185 | 16.67° C | 90% | 1008.6 hPa | 3.81 mm | - | 76 W/m² | - |
| 1787928123 | 16.67° C | 90% | 1008.6 hPa | 4.06 mm | - | 72 W/m² | - |
| 1787928063 | 16.67° C | 89% | 1008.6 hPa | 4.06 mm | - | 70 W/m² | - |
| 1787928004 | 16.67° C | 89% | 1008.7 hPa | 4.32 mm | - | 65 W/m² | - |
| 1787927943 | 16.67° C | 89% | 1008.6 hPa | 4.32 mm | - | 65 W/m² | - |
| 1787927883 | 16.67° C | 89% | 1008.6 hPa | 4.57 mm | - | 62 W/m² | - |
| 1787927826 | 16.67° C | 89% | 1008.6 hPa | 4.83 mm | - | 62 W/m² | - |
| 1787927763 | 16.67° C | 89% | 1008.6 hPa | 4.83 mm | - | 56 W/m² | - |
| 1787927704 | 16.67° C | 89% | 1008.6 hPa | 5.08 mm | - | 55 W/m² | - |
| 1787927643 | 16.67° C | 89% | 1008.7 hPa | 5.08 mm | - | 53 W/m² | - |
| 1787927584 | 16.67° C | 89% | 1008.7 hPa | 5.59 mm | - | 51 W/m² | - |
* Rain latest hour (hover to see other rain measurements)
** Current wind speed in m/s (hover to see current wind gust speed)